Location: Hains Lake
(37.8540°N, 99.8578°W)
Time: 16:38:33
(UTC+00:00)

Vanguard 1 - Pass Details

Date: 10 December 2021
Orbit: 652 x 3830 km, 34.2° (Epoch: 22 January)

Event Time Altitude Azimuth Distance (km) Brightness Sun altitude
Rises 02:06:19 0° 196° (SSW) 5,427 14.1 -32.0°
Reaches altitude 10° 02:10:08 10° 185° (S) 4,857 13.7 -32.7°
Enters shadow 02:20:55 29° 137° (SE) 4,484 13.0 -34.8°
